Tracking 19575 objects as of 20-Feb-2019
HD Live streaming from Space Station
objects crossing your sky now

LEMUR 2 NOGUECORREIG

Track LEMUR 2 NOGUECORREIG now!
10-day predictions
LEMUR 2 NOGUECORREIG is classified as:


NORAD ID: 41996
Int'l Code: 2017-008BA
Perigee: 493.7 km
Apogee: 504.2 km
Inclination: 97.4 °
Period: 94.4 minutes
Semi major axis: 6869 km
RCS: Unknown
Launch date: February 15, 2017
Source: United States (US)
Launch site: SRIHARIKOTA (SRI)
aabbcc
Your satellite tracking list
Your tracking list is empty




NASA's NSSDC Master Catalog

Two Line Element Set (TLE):
1 41996U 17008BA  19050.89535453 +.00001385 +00000-0 +58972-4 0  9994
2 41996 097.4203 118.7018 0007664 209.6992 150.3811 15.24651416111054
Source of the keplerian elements: AFSPC